Find Starlink 31357

NORAD ID: 59502 Int'l Des: 2024-071 Owner: SPXS Country: US Constellation: starlink operational
LEOCIRCULAR

リアルタイム位置

3D地球を読み込み中...

Starlink 31357について

説明を読み込み中...

次回通過

Passes for default location (London). Set your location on the main map for personalized predictions.

高度履歴

Loading altitude history...

軌道要素

1 59502U 24071U 26126.37403075 -.00001163 00000-0 -32741-4 0 9995
2 59502 43.0061 14.3199 0001293 275.8884 84.1821 15.27577969117024
Epoch: May 6, 2026 • Age: 11 hours

現在のステータス

高度 482.4 km
速度 7.63 km/s
衛星直下点 15.75°N, 136.43°W
打ち上げ日 Apr 13, 2024
運用期間 2 years
タイプ internet

技術仕様

分類 Payload
質量 730.00 kg
乾燥質量 700.00 kg
総質量 730.00 kg
長さ 0.30 m
直径 4.10 m
スパン 29.00 m
形状 Box + pan
製造者 SPXS
バスタイプ Starlink V2M
フェーズステータス In Orbit
所有者/国 SPXS/US

Most Searched